STARLINK-32867, 62855

Orbit data source: Space-Track

STARLINK-32867, 62855 is a payload satellite owned by SpaceX/Seattle (US) in LEO that was launched on Sat, 01 Feb 2025 UTC via an FALCON 9 launch vehicle from the Air Force Western Test Range (AFWTR). Payload-class satellites include a variety of spacecraft equipped with specific instruments for various scientific and technological missions. These include communications satellites like Starlink; space stations such as the ISS; scientific satellites like the Hubble; Earth observation satellites from companies like Planet Labs, Umbra, and HawkEye 360; GPS; miniature CubeSats for education and research; and military/defense satellites.

Loading next visibility...
Identifier
62855, 2025-022B
Orbit
LEO
Country
Flag of USUS
Related business
Manufacturer
SpaceX/Seattle
Mission
Operational Commercial Communications
Bus & Motor
STARLINK V2M, Unknown motor
Mass
730 kg wet, ~700 kg dry
Launch date (UTC)
2025-02-01 (9 months ago)
Launch vehicle
FALCON 9
Launch site
Air Force Western Test Range (AFWTR)
Object type
Payload
Rocket body
Debris
Shape & HBR
Box + 2 Pan, 17.7 m
Radar Cross Section
33.884 m², Large (>1 m²)

Expand to show TLE details & history
Last TLE update: 12 hours ago

TLE from 12 hours ago
0 STARLINK-32867
1 62855U 25022B   25308.54094866  .00015239  00000-0  52594-3 0  9995
2 62855  53.1601 350.5971 0001366  88.0471 272.0686 15.30177979 42745
Epoch: 2025-11-04T12:58Z
TLE epoch observation values (Epoch: 2025-11-04T12:58:57.964Z)
Latitude
-0.00002°
Longitude
111.82907°
Altitude
476.147 km
Speed
7.629 km/s
True Right ascension
23h 22m 23s
True Declination
0° 00' 00"
Sunlit
Object was in full shadow at epoch
Visualization orbit readout
Latitude
Unknown
Longitude
Unknown
Altitude
Unknown
Speed
Unknown
Apparent Right ascension
Unknown
Apparent Declination
Unknown
Sunlit
N/A
Visualization observer readout
Local Sidereal Time
21:22:43
Azimuth
Unknown
Elevation
Unknown
Doppler factor
Unknown
Orbital elements
Apogee altitude
476.473 km
Perigee altitude
474.601 km
Semi-major axis
6,853.674 km
Eccentricity
0.00014
Inclination
53.1601°
RAAN
350.5971°
Arg. of periapsis
88.0471°
True anomaly
272.05296°
Mean anomaly
272.0686°
Eccentric anomaly
272.06078°
Mean motion
3.82523 °/min
Orbital period
94.11 mins
BSTAR
0.00052594
Loading maneuver chart data...
Computing Atmospheric mass density...
Loading historical data...
Loading historical data...
Loading historical data...
Loading historical data...
Loading historical data...
Loading historical data...
Loading historical data...

Documentation

Showing up to 5 results
|